TimeCDT,TemperatureF,Dew PointF,Humidity,Sea Level PressureIn,VisibilityMPH,Wind Direction,Wind SpeedMPH,Gust SpeedMPH,PrecipitationIn,Events,Conditions,WindDirDegrees,DateUTC
12:53 AM,41.0,28.9,62,30.27,10.0,NW,8.1,-,N/A,,Clear,310,2012-10-05 05:53:00
1:53 AM,39.9,28.9,65,30.27,10.0,NW,12.7,-,N/A,,Clear,320,2012-10-05 06:53:00
3:53 AM,34.0,27.0,75,30.25,10.0,WSW,5.8,-,N/A,,Clear,240,2012-10-05 08:53:00
4:53 AM,30.0,26.1,85,30.26,10.0,SW,4.6,-,N/A,,Clear,220,2012-10-05 09:53:00
5:53 AM,30.9,26.1,82,30.28,10.0,WSW,5.8,-,N/A,,Clear,240,2012-10-05 10:53:00
6:53 AM,30.9,26.1,82,30.28,10.0,West,4.6,-,N/A,,Clear,270,2012-10-05 11:53:00
7:53 AM,35.1,28.0,76,30.30,10.0,West,4.6,-,N/A,,Clear,270,2012-10-05 12:53:00
8:53 AM,37.9,28.0,68,30.28,10.0,NW,8.1,-,N/A,,Clear,320,2012-10-05 13:53:00
9:53 AM,41.0,27.0,57,30.29,10.0,NW,8.1,-,N/A,,Partly Cloudy,310,2012-10-05 14:53:00
10:53 AM,42.1,27.0,55,30.28,10.0,WNW,12.7,-,N/A,,Partly Cloudy,290,2012-10-05 15:53:00
11:53 AM,45.0,28.0,52,30.28,10.0,WNW,9.2,-,N/A,,Clear,290,2012-10-05 16:53:00
12:53 PM,46.0,25.0,44,30.27,10.0,West,13.8,20.7,N/A,,Clear,280,2012-10-05 17:53:00
1:53 PM,46.0,24.1,42,30.27,10.0,WNW,15.0,-,N/A,,Partly Cloudy,300,2012-10-05 18:53:00
2:53 PM,46.9,23.0,39,30.25,10.0,West,18.4,-,N/A,,Clear,280,2012-10-05 19:53:00
3:53 PM,48.9,18.0,29,30.22,10.0,NW,16.1,29.9,N/A,,Clear,310,2012-10-05 20:53:00
4:53 PM,50.0,18.0,28,30.21,10.0,NW,17.3,23.0,N/A,,Clear,310,2012-10-05 21:53:00
5:53 PM,48.9,19.0,31,30.20,10.0,WNW,13.8,-,N/A,,Clear,290,2012-10-05 22:53:00
6:53 PM,46.0,18.0,33,30.21,10.0,WNW,8.1,-,N/A,,Clear,300,2012-10-05 23:53:00
7:53 PM,43.0,19.0,38,30.22,10.0,WNW,9.2,-,N/A,,Clear,290,2012-10-06 00:53:00
8:53 PM,42.1,19.0,40,30.24,10.0,WNW,9.2,-,N/A,,Clear,300,2012-10-06 01:53:00
9:53 PM,41.0,18.0,40,30.24,10.0,NW,9.2,-,N/A,,Clear,310,2012-10-06 02:53:00
10:53 PM,37.9,19.0,47,30.25,10.0,NW,9.2,-,N/A,,Clear,320,2012-10-06 03:53:00
11:53 PM,37.0,19.0,48,30.25,10.0,NW,8.1,-,N/A,,Clear,320,2012-10-06 04:53:00